User: anonymous
Location: Mount Graham
(32.7016°N, 109.8912°W)
Time: 11:14:45
(UTC-07:00)
Language:

Cosmos 1340 - Orbit

View from above orbital plane
View from above orbital plane
View from above satellite
View from above satellite

Ground track
Ground track

The orbit data is extracted from the following two-line orbital elements,

1 13067U 82013A   14241.50095231  .00003112  00000-0  17390-3 0  4566
2 13067 081.1886 242.8345 0003168 028.6245 137.4801 15.13232889772736
Epoch (UTC): 29 August 2014 12:01:22
Eccentricity: 0.0003168
inclination: 81.1886°
perigee height: 524 km
apogee height: 528 km
right ascension of ascending node: 242.8345°
argument of perigee: 28.6245°
revolutions per day: 15.13232889
mean anomaly at epoch: 137.4801°
orbit number at epoch: 77273

The dashed part of the orbit path shows where the satellite is in the earth's shadow,  

DLR